Weather History for Paducah, KY

Change the Weather History Date:

Monday, February 18, 2013

  Actual Average Record
Temperature  
Mean Temperature 49 °F 40 °F  
Max Temperature 60 °F 50 °F 71 °F (1961)
Min Temperature 37 °F 30 °F 1 °F (1958)
Degree Days  
Heating Degree Days 16 25  
Month to date heating degree days 457 490  
Since 1 July heating degree days 2830 3063  
Cooling Degree Days 0 0  
Month to date cooling degree days 0 0  
Year to date cooling degree days 0 0  
Moisture  
Dew Point 40 °F    
Average Humidity 63    
Maximum Humidity 86    
Minimum Humidity 40    
Precipitation  
Precipitation 0.77 in 0.14 in 2.00 in (1940)
Month to date precipitation 1.91 2.52  
Year to date precipitation 9.96 6.20  
Snow  
Snow 0.00 in 0.10 in 3.60 in (2006)
Month to date snowfall T 2.2  
Since 1 July snowfall 6.1 7.5  
Snow Depth 0.00 in    
Sea Level Pressure  
Sea Level Pressure 29.85 in    
Wind  
Wind Speed 14 mph (SSW)    
Max Wind Speed 28 mph    
Max Gust Speed 41 mph    
Visibility 8 miles    
Events Rain , Thunderstorm    
T = Trace of Precipitation, MM = Missing Value Source: NWS Daily Summary

Daily Weather History Graph

Daily Weather History Graph

Search for Another Location

Airport:

Trip Planner

Search our weather history database for the weather conditions in past years. The results will help you decide how hot, cold, wet, or windy it might be!

Date:

Astronomy

Feb. 18, 2013 Rise Set
Actual Time 6:39 AM CST 5:38 PM CST
Civil Twilight 6:13 AM CST 6:05 PM CST
Nautical Twilight 5:43 AM CST 6:35 PM CST
Astronomical Twilight 5:13 AM CST 7:05 PM CST
Moon 11:28 AM CST (2/18) 1:15 AM CST (2/18)
Length of Visible Light 11h 51m
Length of Day
10h 58m
First Quarter, 58% of the Moon is Illuminated
Feb 18
First Quarter
Feb 25
Full
Mar 4
Last Quarter
Mar 11
New
Mar 19
First Quarter

Hourly Weather History & Observations

Time (CST) Temp. Windchill Dew Point Humidity Pressure Visibility Wind Dir Wind Speed Gust Speed Precip Events Conditions
12:53 AM 39.0 °F 34.0 °F 24.1 °F 55% 30.04 in 10.0 mi SSE 6.9 mph - N/A   Clear
1:53 AM 41.0 °F 34.7 °F 25.0 °F 53% 30.03 in 10.0 mi South 10.4 mph - N/A   Clear
2:53 AM 42.1 °F 36.6 °F 26.1 °F 53% 30.01 in 10.0 mi South 9.2 mph 17.3 mph N/A   Clear
3:53 AM 43.0 °F 37.2 °F 28.0 °F 56% 30.01 in 10.0 mi South 10.4 mph 18.4 mph N/A   Clear
4:53 AM 44.1 °F 39.0 °F 30.0 °F 58% 30.02 in 10.0 mi SSW 9.2 mph - N/A   Clear
5:53 AM 44.1 °F 39.5 °F 32.0 °F 63% 30.01 in 10.0 mi South 8.1 mph 16.1 mph N/A   Clear
6:53 AM 45.0 °F 40.1 °F 35.1 °F 68% 30.01 in 10.0 mi South 9.2 mph - N/A   Clear
7:53 AM 46.4 °F 40.7 °F 35.6 °F 66% 30.01 in 10.0 mi South 12.7 mph 21.9 mph N/A   Clear
8:53 AM 50.0 °F - 37.9 °F 63% 30.01 in 10.0 mi SSW 16.1 mph 28.8 mph N/A   Clear
9:53 AM 52.0 °F - 37.9 °F 59% 29.99 in 10.0 mi South 15.0 mph 28.8 mph N/A   Clear
10:53 AM 55.0 °F - 36.0 °F 49% 29.96 in 10.0 mi SSW 15.0 mph 33.4 mph N/A   Overcast
11:53 AM 59.0 °F - 35.1 °F 41% 29.93 in 10.0 mi SSW 12.7 mph 29.9 mph N/A   Overcast
12:53 PM 57.9 °F - 35.1 °F 42% 29.86 in 10.0 mi South 15.0 mph 29.9 mph N/A   Mostly Cloudy
1:53 PM 55.9 °F - 39.9 °F 55% 29.86 in 10.0 mi SSW 18.4 mph 29.9 mph 0.00 in Rain Light Rain
2:53 PM 54.0 °F - 43.0 °F 66% 29.82 in 10.0 mi South 12.7 mph 25.3 mph 0.03 in Rain Light Rain
3:53 PM 50.0 °F - 45.0 °F 83% 29.78 in 9.0 mi South 21.9 mph 28.8 mph 0.06 in Rain Light Rain
4:53 PM 50.0 °F - 46.0 °F 86% 29.74 in 7.0 mi SSE 16.1 mph 27.6 mph 0.03 in Rain Light Rain
5:05 PM 50.0 °F - 44.6 °F 82% 29.73 in 10.0 mi SSE 19.6 mph 25.3 mph 0.00 in Thunderstorm Thunderstorm
5:38 PM 50.0 °F - 46.4 °F 87% 29.73 in 8.0 mi South 12.7 mph 25.3 mph 0.04 in Rain Light Rain
5:53 PM 50.0 °F - 46.0 °F 86% 29.73 in 5.0 mi South 16.1 mph 25.3 mph 0.08 in Rain Light Rain
6:53 PM 50.0 °F - 46.0 °F 86% 29.70 in 8.0 mi South 21.9 mph 29.9 mph 0.16 in Rain Light Rain
7:18 PM 50.0 °F - 46.4 °F 87% 29.71 in 4.0 mi South 18.4 mph 29.9 mph 0.03 in Rain Heavy Rain
7:25 PM 50.0 °F - 46.4 °F 87% 29.68 in 3.0 mi South 24.2 mph 36.8 mph 0.06 in Rain Heavy Rain
7:48 PM 50.0 °F - 46.4 °F 87% 29.71 in 3.0 mi South 11.5 mph 33.4 mph 0.12 in Rain , Thunderstorm Light Thunderstorms and Rain
7:53 PM 50.0 °F - 46.9 °F 89% 29.73 in 3.0 mi SSW 15.0 mph 27.6 mph 0.14 in Rain , Thunderstorm Light Thunderstorms and Rain
7:57 PM 50.0 °F - 46.4 °F 87% 29.80 in 2.5 mi West 26.5 mph 35.7 mph 0.02 in Rain , Thunderstorm Light Thunderstorms and Rain
8:00 PM 48.2 °F - 46.4 °F 93% 29.78 in 1.8 mi WSW 24.2 mph 35.7 mph 0.04 in Rain , Thunderstorm Light Thunderstorms and Rain
8:06 PM 46.4 °F 38.3 °F 42.8 °F 87% 29.78 in 1.8 mi WSW 23.0 mph 35.7 mph 0.15 in Rain , Thunderstorm Light Thunderstorms and Rain
8:09 PM 46.4 °F 39.8 °F 42.8 °F 87% 29.77 in 3.0 mi SW 16.1 mph 35.7 mph 0.15 in Rain , Thunderstorm Light Thunderstorms and Rain
8:47 PM 48.2 °F - 44.6 °F 87% 29.71 in 10.0 mi South 13.8 mph 23.0 mph 0.26 in Rain Light Rain
8:53 PM 48.9 °F - 45.0 °F 86% 29.72 in 10.0 mi South 10.4 mph 21.9 mph 0.26 in   Overcast
9:53 PM 50.0 °F - 46.0 °F 86% 29.74 in 10.0 mi SW 12.7 mph 18.4 mph N/A   Overcast
10:05 PM 50.0 °F - 46.4 °F 87% 29.75 in 10.0 mi SW 12.7 mph 19.6 mph N/A   Overcast
10:53 PM 48.2 °F - 44.6 °F 87% 29.81 in 7.0 mi WNW 24.2 mph 31.1 mph N/A Rain Light Rain
11:04 PM 44.6 °F 36.4 °F 42.8 °F 93% 29.83 in 7.0 mi NW 20.7 mph 31.1 mph 0.00 in Rain Light Rain
11:24 PM 44.6 °F 37.4 °F 39.2 °F 81% 29.85 in 10.0 mi NW 16.1 mph 24.2 mph 0.00 in   Overcast
11:53 PM 43.0 °F 36.4 °F 37.9 °F 82% 29.87 in 10.0 mi NW 12.7 mph 24.2 mph 0.00 in   Overcast